| time (UTC) | temp F | wind direction | speed MPH | gust MPH | rain 1hr in | rain 24hr in | rain mn in | humidity % | barometer mb |
| 20260509223522 | 73 | 222 | 0.0 | 1.0 | 0.00 | 0.00 | 0.00 | 58 | 1007.7 |
| 20260509223016 | 73 | 222 | 0.0 | 1.0 | 0.00 | 0.00 | 0.00 | 59 | 1007.8 |
| 20260509222511 | 73 | 222 | 0.0 | 1.0 | 0.00 | 0.00 | 0.00 | 58 | 1007.7 |
| 20260509222226 | 74 | 222 | 0.0 | 1.0 | 0.00 | 0.00 | 0.00 | 57 | 1007.8 |
| 20260509221458 | 74 | 222 | 0.0 | 1.0 | 0.00 | 0.00 | 0.00 | 57 | 1007.7 |
| 20260509220953 | 74 | 222 | 0.0 | 2.0 | 0.00 | 0.00 | 0.00 | 56 | 1007.8 |
| 20260509220446 | 73 | 222 | 0.0 | 2.0 | 0.00 | 0.00 | 0.00 | 55 | 1007.9 |
| 20260509215940 | 73 | 286 | 0.0 | 1.0 | 0.00 | 0.00 | 0.00 | 55 | 1007.8 |
| 20260509215434 | 73 | 286 | 0.0 | 1.0 | 0.00 | 0.00 | 0.00 | 54 | 1007.8 |
| 20260509214930 | 73 | 286 | 0.0 | 1.0 | 0.00 | 0.00 | 0.00 | 53 | 1007.8 |
| 20260509214741 | 73 | 221 | 0.0 | 1.0 | 0.00 | 0.00 | 0.00 | 54 | 1007.8 |
| 20260509214651 | 74 | 263 | 0.0 | 2.0 | 0.00 | 0.00 | 0.00 | 53 | 1007.8 |
| 20260509213410 | 74 | 143 | 1.0 | 4.0 | 0.00 | 0.00 | 0.00 | 53 | 1007.7 |
| 20260509212904 | 74 | 259 | 1.0 | 4.0 | 0.00 | 0.00 | 0.00 | 50 | 1007.7 |
| 20260509212358 | 74 | 266 | 1.0 | 6.0 | 0.00 | 0.00 | 0.00 | 52 | 1007.6 |
| 20260509211852 | 74 | 244 | 1.0 | 6.0 | 0.00 | 0.00 | 0.00 | 55 | 1007.6 |
| 20260509211346 | 74 | 179 | 1.0 | 4.0 | 0.00 | 0.00 | 0.00 | 52 | 1007.5 |
| 20260509210846 | 75 | 158 | 1.0 | 4.0 | 0.00 | 0.00 | 0.00 | 50 | 1007.6 |
| 20260509210347 | 76 | 177 | 1.0 | 4.0 | 0.00 | 0.00 | 0.00 | 51 | 1007.4 |
| 20260509205846 | 75 | 281 | 1.0 | 3.0 | 0.00 | 0.00 | 0.00 | 49 | 1007.5 |
| 20260509205343 | 75 | 201 | 2.0 | 4.0 | 0.00 | 0.00 | 0.00 | 48 | 1007.5 |
| 20260509204843 | 76 | 264 | 1.0 | 4.0 | 0.00 | 0.00 | 0.00 | 48 | 1007.5 |
| 20260509204343 | 76 | 128 | 1.0 | 6.0 | 0.00 | 0.00 | 0.00 | 51 | 1007.4 |
| 20260509203842 | 75 | 127 | 1.0 | 6.0 | 0.00 | 0.00 | 0.00 | 51 | 1007.3 |
| 20260509203342 | 76 | 156 | 1.0 | 6.0 | 0.00 | 0.00 | 0.00 | 52 | 1007.4 |
| 20260509202843 | 78 | 254 | 2.0 | 6.0 | 0.00 | 0.00 | 0.00 | 47 | 1007.4 |
| 20260509202340 | 77 | 88 | 2.0 | 6.0 | 0.00 | 0.00 | 0.00 | 48 | 1007.4 |
| 20260509201841 | 76 | 279 | 2.0 | 8.0 | 0.00 | 0.00 | 0.00 | 47 | 1007.4 |
| 20260509201603 | 77 | 27 | 2.0 | 8.0 | 0.00 | 0.00 | 0.00 | 45 | 1007.4 |
| 20260509201104 | 76 | 213 | 2.0 | 9.0 | 0.00 | 0.00 | 0.00 | 47 | 1007.5 |
| 20260509200341 | 77 | 197 | 2.0 | 9.0 | 0.00 | 0.00 | 0.00 | 48 | 1007.6 |
| 20260509195839 | 77 | 97 | 2.0 | 8.0 | 0.00 | 0.00 | 0.00 | 48 | 1007.7 |
| 20260509195337 | 77 | 35 | 2.0 | 7.0 | 0.00 | 0.00 | 0.00 | 45 | 1007.8 |
| 20260509194839 | 76 | 225 | 2.0 | 8.0 | 0.00 | 0.00 | 0.00 | 47 | 1007.8 |
| 20260509194334 | 77 | 324 | 1.0 | 8.0 | 0.00 | 0.00 | 0.00 | 51 | 1007.9 |
| 20260509193828 | 77 | 302 | 1.0 | 6.0 | 0.00 | 0.00 | 0.00 | 47 | 1008.0 |
| 20260509193555 | 75 | 264 | 2.0 | 5.0 | 0.00 | 0.00 | 0.00 | 52 | 1008.0 |
| 20260509193041 | 74 | 293 | 1.0 | 5.0 | 0.00 | 0.00 | 0.00 | 52 | 1008.2 |
| 20260509192318 | 74 | 243 | 1.0 | 6.0 | 0.00 | 0.00 | 0.00 | 52 | 1008.3 |
| 20260509191817 | 73 | 59 | 1.0 | 6.0 | 0.00 | 0.00 | 0.00 | 55 | 1008.3 |
| 20260509191318 | 73 | 244 | 1.0 | 6.0 | 0.00 | 0.00 | 0.00 | 56 | 1008.4 |
| 20260509190814 | 74 | 202 | 2.0 | 5.0 | 0.00 | 0.00 | 0.00 | 54 | 1008.4 |
| 20260509190315 | 75 | 126 | 1.0 | 5.0 | 0.00 | 0.00 | 0.00 | 51 | 1008.5 |
| 20260509185815 | 74 | 134 | 1.0 | 4.0 | 0.00 | 0.00 | 0.00 | 54 | 1008.5 |
| 20260509185313 | 73 | 128 | 1.0 | 3.0 | 0.00 | 0.00 | 0.00 | 57 | 1008.6 |
| 20260509184815 | 72 | 127 | 1.0 | 3.0 | 0.00 | 0.00 | 0.00 | 60 | 1008.7 |
| 20260509184315 | 71 | 157 | 1.0 | 4.0 | 0.00 | 0.00 | 0.00 | 59 | 1008.8 |
| 20260509183816 | 71 | 255 | 1.0 | 4.0 | 0.00 | 0.00 | 0.00 | 60 | 1008.9 |
| 20260509183314 | 72 | 15 | 1.0 | 4.0 | 0.00 | 0.00 | 0.00 | 57 | 1009.0 |
| 20260509182810 | 72 | 277 | 0.0 | 2.0 | 0.00 | 0.00 | 0.00 | 61 | 1009.0 |
| 20260509182309 | 72 | 189 | 1.0 | 2.0 | 0.00 | 0.00 | 0.00 | 60 | 1009.2 |
| 20260509181810 | 71 | 234 | 1.0 | 4.0 | 0.00 | 0.00 | 0.00 | 61 | 1009.4 |
| 20260509181310 | 71 | 134 | 1.0 | 4.0 | 0.00 | 0.00 | 0.00 | 60 | 1009.5 |
| 20260509180809 | 71 | 291 | 1.0 | 5.0 | 0.00 | 0.00 | 0.00 | 61 | 1009.5 |
| 20260509180532 | 71 | 16 | 1.0 | 5.0 | 0.00 | 0.00 | 0.00 | 62 | 1009.5 |
| 20260509175810 | 70 | 17 | 1.0 | 4.0 | 0.00 | 0.00 | 0.00 | 60 | 1009.5 |
| 20260509175309 | 69 | 204 | 2.0 | 7.0 | 0.00 | 0.00 | 0.00 | 62 | 1009.5 |
| 20260509174811 | 69 | 283 | 2.0 | 7.0 | 0.00 | 0.00 | 0.00 | 61 | 1009.7 |
| 20260509174305 | 69 | 207 | 1.0 | 5.0 | 0.00 | 0.00 | 0.00 | 61 | 1009.8 |
| 20260509173807 | 69 | 238 | 1.0 | 4.0 | 0.00 | 0.00 | 0.00 | 62 | 1009.8 |
| 20260509173307 | 69 | 202 | 1.0 | 7.0 | 0.00 | 0.00 | 0.00 | 62 | 1009.8 |
| 20260509172806 | 69 | 245 | 1.0 | 7.0 | 0.00 | 0.00 | 0.00 | 62 | 1009.9 |
| 20260509172308 | 69 | 217 | 1.0 | 6.0 | 0.00 | 0.00 | 0.00 | 63 | 1009.9 |
| 20260509172306 | 68 | 239 | 2.0 | 4.0 | 0.00 | 0.00 | 0.00 | 62 | 1010.0 |
| 20260509171308 | 68 | 197 | 2.0 | 4.0 | 0.00 | 0.00 | 0.00 | 62 | 1009.9 |
| 20260509170806 | 68 | 66 | 3.0 | 8.0 | 0.00 | 0.00 | 0.00 | 62 | 1009.9 |
| 20260509170308 | 68 | 264 | 3.0 | 9.0 | 0.00 | 0.00 | 0.00 | 62 | 1010.0 |
| 20260509165801 | 68 | 219 | 3.0 | 9.0 | 0.00 | 0.00 | 0.00 | 61 | 1009.9 |
| 20260509165517 | 68 | 166 | 2.0 | 9.0 | 0.00 | 0.00 | 0.00 | 62 | 1009.8 |
| 20260509164752 | 69 | 217 | 2.0 | 9.0 | 0.00 | 0.00 | 0.00 | 61 | 1009.9 |
| 20260509164252 | 69 | 268 | 2.0 | 7.0 | 0.00 | 0.00 | 0.00 | 59 | 1009.8 |
| 20260509164021 | 71 | 217 | 2.0 | 7.0 | 0.00 | 0.00 | 0.00 | 56 | 1009.9 |
| 20260509163252 | 71 | 144 | 2.0 | 11.0 | 0.00 | 0.00 | 0.00 | 61 | 1009.9 |
| 20260509162752 | 69 | 298 | 2.0 | 11.0 | 0.00 | 0.00 | 0.00 | 58 | 1009.9 |
| 20260509162250 | 69 | 123 | 2.0 | 8.0 | 0.00 | 0.00 | 0.00 | 61 | 1010.0 |
| 20260509161750 | 68 | 124 | 2.0 | 8.0 | 0.00 | 0.00 | 0.00 | 60 | 1010.1 |
| 20260509161247 | 68 | 107 | 2.0 | 8.0 | 0.00 | 0.00 | 0.00 | 61 | 1010.2 |
| 20260509160749 | 68 | 130 | 3.0 | 8.0 | 0.00 | 0.00 | 0.00 | 61 | 1010.2 |
| 20260509160248 | 68 | 228 | 3.0 | 7.0 | 0.00 | 0.00 | 0.00 | 59 | 1010.2 |
| 20260509160009 | 68 | 252 | 3.0 | 11.0 | 0.00 | 0.00 | 0.00 | 60 | 1010.1 |
| 20260509155244 | 67 | 278 | 2.0 | 11.0 | 0.00 | 0.00 | 0.00 | 59 | 1010.1 |
| 20260509154744 | 68 | 282 | 1.0 | 4.0 | 0.00 | 0.00 | 0.00 | 61 | 1010.0 |
| 20260509154242 | 67 | 194 | 1.0 | 6.0 | 0.00 | 0.00 | 0.00 | 60 | 1010.1 |
| 20260509153740 | 67 | 244 | 2.0 | 7.0 | 0.00 | 0.00 | 0.00 | 61 | 1010.2 |
| 20260509153509 | 67 | 311 | 2.0 | 7.0 | 0.00 | 0.00 | 0.00 | 61 | 1010.4 |
| 20260509152740 | 67 | 301 | 2.0 | 8.0 | 0.00 | 0.00 | 0.00 | 60 | 1010.4 |
| 20260509152239 | 67 | 111 | 2.0 | 8.0 | 0.00 | 0.00 | 0.00 | 60 | 1010.4 |
| 20260509151733 | 68 | 161 | 2.0 | 7.0 | 0.00 | 0.00 | 0.00 | 62 | 1010.3 |
| 20260509151228 | 67 | 261 | 2.0 | 8.0 | 0.00 | 0.00 | 0.00 | 61 | 1010.3 |
| 20260509150723 | 67 | 177 | 2.0 | 9.0 | 0.00 | 0.00 | 0.00 | 62 | 1010.4 |
| 20260509150220 | 66 | 263 | 3.0 | 9.0 | 0.00 | 0.00 | 0.00 | 62 | 1010.3 |
| 20260509145710 | 66 | 238 | 2.0 | 8.0 | 0.00 | 0.00 | 0.00 | 62 | 1010.4 |
| 20260509145205 | 65 | 163 | 2.0 | 8.0 | 0.00 | 0.00 | 0.00 | 64 | 1010.4 |
| 20260509144658 | 65 | 163 | 2.0 | 8.0 | 0.00 | 0.00 | 0.00 | 67 | 1010.6 |
| 20260509144153 | 65 | 126 | 2.0 | 8.0 | 0.00 | 0.00 | 0.00 | 65 | 1010.4 |
| 20260509143905 | 64 | 285 | 2.0 | 7.0 | 0.00 | 0.00 | 0.00 | 64 | 1010.6 |
| 20260509143140 | 64 | 123 | 2.0 | 9.0 | 0.00 | 0.00 | 0.00 | 66 | 1010.7 |
| 20260509142634 | 63 | 152 | 2.0 | 9.0 | 0.00 | 0.00 | 0.00 | 68 | 1010.9 |
| 20260509142129 | 63 | 240 | 2.0 | 5.0 | 0.00 | 0.00 | 0.00 | 67 | 1010.9 |
| 20260509141623 | 63 | 192 | 2.0 | 8.0 | 0.00 | 0.00 | 0.00 | 67 | 1011.0 |
| 20260509141116 | 62 | 183 | 2.0 | 8.0 | 0.00 | 0.00 | 0.00 | 68 | 1011.0 |
| 20260509140610 | 62 | 244 | 2.0 | 9.0 | 0.00 | 0.00 | 0.00 | 66 | 1010.9 |
| 20260509140104 | 62 | 335 | 2.0 | 9.0 | 0.00 | 0.00 | 0.00 | 68 | 1010.9 |
| 20260509140046 | 61 | 236 | 2.0 | 6.0 | 0.00 | 0.00 | 0.00 | 68 | 1011.0 |
| 20260509135052 | 61 | 54 | 2.0 | 9.0 | 0.00 | 0.00 | 0.00 | 69 | 1011.1 |
| 20260509134547 | 60 | 355 | 2.0 | 9.0 | 0.00 | 0.00 | 0.00 | 67 | 1011.1 |
| 20260509134040 | 60 | 324 | 1.0 | 6.0 | 0.00 | 0.00 | 0.00 | 69 | 1011.1 |
| 20260509133534 | 60 | 218 | 2.0 | 6.0 | 0.00 | 0.00 | 0.00 | 68 | 1011.1 |
| 20260509133028 | 60 | 142 | 1.0 | 4.0 | 0.00 | 0.00 | 0.00 | 69 | 1011.1 |
| 20260509132522 | 60 | 64 | 1.0 | 4.0 | 0.00 | 0.00 | 0.00 | 70 | 1011.1 |
| 20260509132016 | 59 | 155 | 1.0 | 4.0 | 0.00 | 0.00 | 0.00 | 70 | 1011.1 |
| 20260509131510 | 59 | 115 | 2.0 | 7.0 | 0.00 | 0.00 | 0.00 | 71 | 1011.2 |
| 20260509131004 | 59 | 232 | 1.0 | 7.0 | 0.00 | 0.00 | 0.00 | 72 | 1011.3 |
| 20260509130457 | 59 | 120 | 1.0 | 4.0 | 0.00 | 0.00 | 0.00 | 71 | 1011.3 |
| 20260509130218 | 58 | 123 | 1.0 | 3.0 | 0.00 | 0.00 | 0.00 | 71 | 1011.3 |
| 20260509125446 | 58 | 44 | 1.0 | 8.0 | 0.00 | 0.00 | 0.00 | 71 | 1011.3 |
| 20260509124940 | 58 | 217 | 2.0 | 8.0 | 0.00 | 0.00 | 0.00 | 70 | 1011.3 |
| 20260509124656 | 58 | 274 | 1.0 | 6.0 | 0.00 | 0.00 | 0.00 | 71 | 1011.3 |
| 20260509123929 | 58 | 204 | 1.0 | 3.0 | 0.00 | 0.00 | 0.00 | 70 | 1011.3 |
| 20260509123422 | 58 | 113 | 1.0 | 6.0 | 0.00 | 0.00 | 0.00 | 73 | 1011.4 |
| 20260509123134 | 57 | 247 | 1.0 | 6.0 | 0.00 | 0.00 | 0.00 | 71 | 1011.3 |
| 20260509122410 | 57 | 186 | 1.0 | 5.0 | 0.00 | 0.00 | 0.00 | 71 | 1011.3 |
| 20260509121905 | 57 | 249 | 2.0 | 6.0 | 0.00 | 0.00 | 0.00 | 71 | 1011.3 |
| 20260509121357 | 57 | 159 | 2.0 | 6.0 | 0.00 | 0.00 | 0.00 | 69 | 1011.3 |
| 20260509120853 | 57 | 349 | 1.0 | 4.0 | 0.00 | 0.00 | 0.00 | 70 | 1011.3 |
| 20260509120346 | 57 | 150 | 1.0 | 4.0 | 0.00 | 0.00 | 0.00 | 70 | 1011.3 |
| 20260509115840 | 56 | 208 | 1.0 | 4.0 | 0.00 | 0.00 | 0.00 | 70 | 1011.3 |
| 20260509115334 | 56 | 333 | 1.0 | 4.0 | 0.00 | 0.00 | 0.00 | 69 | 1011.2 |
| 20260509114827 | 56 | 179 | 1.0 | 7.0 | 0.00 | 0.00 | 0.00 | 69 | 1011.1 |
| 20260509114322 | 56 | 224 | 2.0 | 7.0 | 0.00 | 0.00 | 0.00 | 68 | 1011.0 |
| 20260509113815 | 56 | 208 | 1.0 | 3.0 | 0.00 | 0.00 | 0.00 | 69 | 1011.0 |
| 20260509113309 | 56 | 149 | 1.0 | 4.0 | 0.00 | 0.00 | 0.00 | 68 | 1010.9 |
| 20260509112805 | 56 | 141 | 1.0 | 4.0 | 0.00 | 0.00 | 0.00 | 68 | 1011.0 |
| 20260509112306 | 56 | 137 | 1.0 | 4.0 | 0.00 | 0.00 | 0.00 | 67 | 1011.0 |
| 20260509111801 | 56 | 121 | 1.0 | 4.0 | 0.00 | 0.00 | 0.00 | 67 | 1011.0 |
| 20260509111301 | 56 | 109 | 1.0 | 3.0 | 0.00 | 0.00 | 0.00 | 68 | 1010.9 |
| 20260509110801 | 56 | 111 | 1.0 | 3.0 | 0.00 | 0.00 | 0.00 | 68 | 1011.0 |
| 20260509110300 | 56 | 205 | 1.0 | 7.0 | 0.00 | 0.00 | 0.00 | 67 | 1011.0 |
| 20260509105757 | 56 | 188 | 1.0 | 7.0 | 0.00 | 0.00 | 0.00 | 67 | 1011.0 |
| 20260509105259 | 55 | 169 | 1.0 | 2.0 | 0.00 | 0.00 | 0.00 | 66 | 1011.0 |
| 20260509105016 | 55 | 173 | 1.0 | 3.0 | 0.00 | 0.00 | 0.00 | 66 | 1010.9 |
| 20260509104258 | 55 | 119 | 1.0 | 5.0 | 0.00 | 0.00 | 0.00 | 66 | 1011.0 |
| 20260509103757 | 56 | 156 | 0.0 | 5.0 | 0.00 | 0.00 | 0.00 | 66 | 1011.0 |
| 20260509103255 | 56 | 157 | 0.0 | 3.0 | 0.00 | 0.00 | 0.00 | 66 | 1010.9 |
| 20260509102754 | 56 | 205 | 0.0 | 2.0 | 0.00 | 0.00 | 0.00 | 66 | 1010.9 |
| 20260509102253 | 56 | 143 | 0.0 | 2.0 | 0.00 | 0.00 | 0.00 | 66 | 1010.8 |
| 20260509101753 | 56 | 112 | 0.0 | 1.0 | 0.00 | 0.00 | 0.00 | 66 | 1010.9 |
| 20260509101254 | 56 | 106 | 1.0 | 3.0 | 0.00 | 0.00 | 0.00 | 66 | 1010.9 |
| 20260509101016 | 56 | 115 | 1.0 | 3.0 | 0.00 | 0.00 | 0.00 | 65 | 1010.8 |
| 20260509100513 | 56 | 171 | 1.0 | 4.0 | 0.00 | 0.00 | 0.00 | 66 | 1010.7 |
| 20260509100016 | 56 | 155 | 1.0 | 8.0 | 0.00 | 0.00 | 0.00 | 65 | 1010.7 |
| 20260509095248 | 56 | 112 | 1.0 | 8.0 | 0.00 | 0.00 | 0.00 | 65 | 1010.7 |
| 20260509094742 | 55 | 184 | 1.0 | 4.0 | 0.00 | 0.00 | 0.00 | 64 | 1010.7 |
| 20260509094236 | 55 | 228 | 1.0 | 8.0 | 0.00 | 0.00 | 0.00 | 65 | 1010.8 |
| 20260509093730 | 55 | 256 | 1.0 | 8.0 | 0.00 | 0.00 | 0.00 | 65 | 1010.7 |
| 20260509093231 | 55 | 230 | 1.0 | 5.0 | 0.00 | 0.00 | 0.00 | 65 | 1010.7 |
| 20260509092949 | 55 | 211 | 1.0 | 4.0 | 0.00 | 0.00 | 0.00 | 66 | 1010.8 |
| 20260509092230 | 55 | 244 | 1.0 | 3.0 | 0.00 | 0.00 | 0.00 | 66 | 1010.7 |
| 20260509091730 | 55 | 248 | 1.0 | 6.0 | 0.00 | 0.00 | 0.00 | 66 | 1010.9 |
| 20260509091716 | 55 | 209 | 1.0 | 6.0 | 0.00 | 0.00 | 0.00 | 66 | 1010.9 |
| 20260509090727 | 55 | 218 | 1.0 | 3.0 | 0.00 | 0.00 | 0.00 | 65 | 1011.0 |
| 20260509090227 | 55 | 251 | 1.0 | 5.0 | 0.00 | 0.00 | 0.00 | 66 | 1011.1 |
| 20260509085730 | 55 | 231 | 1.0 | 5.0 | 0.00 | 0.00 | 0.00 | 65 | 1011.1 |
| 20260509085452 | 55 | 237 | 1.0 | 5.0 | 0.00 | 0.00 | 0.00 | 66 | 1011.2 |
| 20260509084730 | 55 | 252 | 1.0 | 5.0 | 0.00 | 0.00 | 0.00 | 66 | 1011.3 |
| 20260509084224 | 55 | 302 | 1.0 | 7.0 | 0.00 | 0.00 | 0.00 | 66 | 1011.3 |
| 20260509083726 | 55 | 126 | 1.0 | 7.0 | 0.00 | 0.00 | 0.00 | 65 | 1011.3 |
| 20260509083223 | 55 | 244 | 1.0 | 4.0 | 0.00 | 0.00 | 0.00 | 66 | 1011.4 |
| 20260509082724 | 55 | 207 | 1.0 | 4.0 | 0.00 | 0.00 | 0.00 | 66 | 1011.5 |
| 20260509082223 | 55 | 196 | 1.0 | 3.0 | 0.00 | 0.00 | 0.00 | 66 | 1011.5 |
| 20260509081724 | 55 | 170 | 1.0 | 3.0 | 0.00 | 0.00 | 0.00 | 67 | 1011.6 |
| 20260509081222 | 55 | 259 | 1.0 | 3.0 | 0.00 | 0.00 | 0.00 | 65 | 1011.5 |
| 20260509080722 | 55 | 155 | 1.0 | 3.0 | 0.00 | 0.00 | 0.00 | 66 | 1011.6 |
| 20260509080224 | 55 | 45 | 1.0 | 3.0 | 0.00 | 0.00 | 0.00 | 66 | 1011.7 |
| 20260509075719 | 55 | 348 | 1.0 | 3.0 | 0.00 | 0.00 | 0.00 | 66 | 1011.8 |
| 20260509075444 | 55 | 257 | 1.0 | 3.0 | 0.00 | 0.00 | 0.00 | 66 | 1011.9 |
| 20260509074942 | 55 | 123 | 0.0 | 3.0 | 0.00 | 0.00 | 0.00 | 67 | 1011.9 |
| 20260509074218 | 55 | 211 | 0.0 | 2.0 | 0.00 | 0.00 | 0.00 | 66 | 1011.8 |
| 20260509073719 | 55 | 242 | 1.0 | 4.0 | 0.00 | 0.00 | 0.00 | 66 | 1011.9 |
| 20260509073218 | 54 | 144 | 1.0 | 4.0 | 0.00 | 0.00 | 0.00 | 66 | 1011.9 |
| 20260509072719 | 54 | 254 | 0.0 | 2.0 | 0.00 | 0.00 | 0.00 | 66 | 1011.9 |
| 20260509072220 | 54 | 284 | 0.0 | 3.0 | 0.00 | 0.00 | 0.00 | 67 | 1011.9 |
| 20260509071720 | 54 | 221 | 1.0 | 4.0 | 0.00 | 0.00 | 0.00 | 66 | 1012.0 |
| 20260509071213 | 54 | 138 | 1.0 | 4.0 | 0.00 | 0.00 | 0.00 | 66 | 1011.9 |
| 20260509070932 | 54 | 117 | 0.0 | 2.0 | 0.00 | 0.00 | 0.00 | 67 | 1012.0 |
| 20260509070204 | 54 | 72 | 0.0 | 2.0 | 0.00 | 0.00 | 0.00 | 67 | 1011.9 |
| 20260509065702 | 54 | 72 | 0.0 | 2.0 | 0.00 | 0.00 | 0.00 | 67 | 1011.8 |
| 20260509065656 | 54 | 130 | 0.0 | 2.0 | 0.00 | 0.00 | 0.00 | 67 | 1011.8 |
| 20260509064701 | 55 | 205 | 0.0 | 1.0 | 0.00 | 0.00 | 0.00 | 66 | 1011.8 |
| 20260509064159 | 55 | 205 | 0.0 | 1.0 | 0.00 | 0.00 | 0.00 | 67 | 1011.8 |
| 20260509063924 | 55 | 205 | 0.0 | 2.0 | 0.00 | 0.00 | 0.00 | 66 | 1011.9 |
| 20260509063156 | 55 | 205 | 0.0 | 2.0 | 0.00 | 0.00 | 0.00 | 65 | 1012.0 |
| 20260509062654 | 55 | 276 | 0.0 | 1.0 | 0.00 | 0.00 | 0.00 | 65 | 1012.0 |
| 20260509062417 | 55 | 276 | 0.0 | 1.0 | 0.00 | 0.00 | 0.00 | 64 | 1012.1 |
| 20260509061650 | 55 | 210 | 0.0 | 1.0 | 0.00 | 0.00 | 0.00 | 64 | 1012.1 |
| 20260509061149 | 55 | 240 | 0.0 | 2.0 | 0.00 | 0.00 | 0.00 | 63 | 1012.1 |
| 20260509060648 | 55 | 244 | 0.0 | 2.0 | 0.00 | 0.00 | 0.00 | 63 | 1012.1 |
| 20260509060150 | 55 | 279 | 1.0 | 3.0 | 0.00 | 0.00 | 0.00 | 63 | 1012.1 |
| 20260509055905 | 55 | 142 | 1.0 | 3.0 | 0.00 | 0.00 | 0.00 | 63 | 1012.1 |
| 20260509055147 | 55 | 130 | 0.0 | 3.0 | 0.00 | 0.00 | 0.00 | 63 | 1012.1 |
| 20260509054643 | 56 | 227 | 0.0 | 3.0 | 0.00 | 0.00 | 0.00 | 63 | 1012.0 |
| 20260509054147 | 56 | 229 | 0.0 | 3.0 | 0.00 | 0.00 | 0.00 | 63 | 1012.0 |
| 20260509053642 | 56 | 241 | 0.0 | 3.0 | 0.00 | 0.00 | 0.00 | 62 | 1012.0 |
| 20260509053147 | 56 | 256 | 0.0 | 2.0 | 0.00 | 0.00 | 0.00 | 62 | 1012.1 |
| 20260509052639 | 56 | 212 | 0.0 | 2.0 | 0.00 | 0.00 | 0.00 | 61 | 1012.1 |
| 20260509052132 | 56 | 178 | 0.0 | 2.0 | 0.00 | 0.00 | 0.00 | 62 | 1012.1 |
| 20260509051626 | 56 | 194 | 0.0 | 1.0 | 0.00 | 0.00 | 0.00 | 61 | 1012.1 |
| 20260509051345 | 56 | 209 | 0.0 | 2.0 | 0.00 | 0.00 | 0.00 | 62 | 1012.2 |
| 20260509050614 | 56 | 209 | 0.0 | 3.0 | 0.00 | 0.00 | 0.00 | 60 | 1012.2 |
| 20260509050107 | 57 | 146 | 0.0 | 3.0 | 0.00 | 0.00 | 0.00 | 60 | 1012.0 |
| 20260509045602 | 57 | 192 | 0.0 | 3.0 | 0.00 | 0.00 | 0.00 | 60 | 1012.0 |
| 20260509045056 | 57 | 184 | 0.0 | 2.0 | 0.00 | 0.00 | 0.00 | 60 | 1012.0 |
| 20260509044815 | 57 | 180 | 0.0 | 2.0 | 0.00 | 0.00 | 0.00 | 60 | 1012.0 |
| 20260509044044 | 57 | 248 | 1.0 | 3.0 | 0.00 | 0.00 | 0.00 | 60 | 1012.0 |
| 20260509043803 | 57 | 202 | 1.0 | 4.0 | 0.00 | 0.00 | 0.00 | 59 | 1012.0 |
| 20260509043256 | 57 | 125 | 1.0 | 5.0 | 0.00 | 0.00 | 0.00 | 60 | 1012.0 |
| 20260509042526 | 57 | 176 | 1.0 | 5.0 | 0.00 | 0.00 | 0.00 | 58 | 1012.1 |
| 20260509042020 | 57 | 154 | 1.0 | 6.0 | 0.00 | 0.00 | 0.00 | 58 | 1012.0 |
| 20260509041514 | 57 | 217 | 1.0 | 6.0 | 0.00 | 0.00 | 0.00 | 58 | 1012.0 |
| 20260509041009 | 57 | 244 | 1.0 | 4.0 | 0.00 | 0.00 | 0.00 | 58 | 1012.1 |
| 20260509040722 | 57 | 165 | 0.0 | 3.0 | 0.00 | 0.00 | 0.00 | 60 | 1012.1 |
| 20260509035956 | 57 | 157 | 0.0 | 3.0 | 0.00 | 0.00 | 0.00 | 60 | 1012.1 |
| 20260509035449 | 57 | 183 | 1.0 | 4.0 | 0.00 | 0.00 | 0.00 | 60 | 1012.1 |
| 20260509034943 | 57 | 238 | 1.0 | 4.0 | 0.00 | 0.00 | 0.00 | 59 | 1012.2 |
| 20260509034700 | 57 | 219 | 0.0 | 3.0 | 0.00 | 0.00 | 0.00 | 61 | 1012.2 |
| 20260509033930 | 57 | 257 | 0.0 | 3.0 | 0.00 | 0.00 | 0.00 | 60 | 1012.3 |
| 20260509033914 | 57 | 201 | 0.0 | 4.0 | 0.00 | 0.00 | 0.00 | 60 | 1012.3 |
| 20260509032919 | 58 | 224 | 0.0 | 4.0 | 0.00 | 0.00 | 0.00 | 60 | 1012.4 |
| 20260509032414 | 58 | 229 | 0.0 | 2.0 | 0.00 | 0.00 | 0.00 | 60 | 1012.4 |
| 20260509031906 | 58 | 228 | 0.0 | 2.0 | 0.00 | 0.00 | 0.00 | 61 | 1012.4 |
| 20260509031400 | 58 | 38 | 0.0 | 2.0 | 0.00 | 0.00 | 0.00 | 60 | 1012.4 |
| 20260509030854 | 58 | 244 | 0.0 | 1.0 | 0.00 | 0.00 | 0.00 | 59 | 1012.4 |
| 20260509030349 | 58 | 202 | 0.0 | 2.0 | 0.00 | 0.00 | 0.00 | 60 | 1012.4 |
| 20260509025841 | 58 | 206 | 1.0 | 4.0 | 0.00 | 0.00 | 0.00 | 59 | 1012.4 |
| 20260509025336 | 58 | 246 | 0.0 | 4.0 | 0.00 | 0.00 | 0.00 | 58 | 1012.5 |
| 20260509024829 | 58 | 263 | 0.0 | 3.0 | 0.00 | 0.00 | 0.00 | 61 | 1012.5 |
| 20260509024324 | 58 | 18 | 0.0 | 1.0 | 0.00 | 0.00 | 0.00 | 60 | 1012.5 |
| 20260509023817 | 58 | 331 | 0.0 | 1.0 | 0.00 | 0.00 | 0.00 | 60 | 1012.5 |
| 20260509023311 | 59 | 260 | 0.0 | 2.0 | 0.00 | 0.00 | 0.00 | 59 | 1012.4 |
| 20260509022805 | 59 | 263 | 0.0 | 2.0 | 0.00 | 0.00 | 0.00 | 61 | 1012.4 |
| 20260509022258 | 59 | 16 | 0.0 | 1.0 | 0.00 | 0.00 | 0.00 | 61 | 1012.4 |
| 20260509022017 | 59 | 15 | 0.0 | 1.0 | 0.00 | 0.00 | 0.00 | 59 | 1012.4 |
| 20260509021246 | 59 | 288 | 0.0 | 1.0 | 0.00 | 0.00 | 0.00 | 59 | 1012.4 |
| 20260509020740 | 60 | 288 | 0.0 | 1.0 | 0.00 | 0.00 | 0.00 | 58 | 1012.3 |
| 20260509020235 | 60 | 288 | 0.0 | 1.0 | 0.00 | 0.00 | 0.00 | 56 | 1012.3 |
| 20260509015729 | 60 | 297 | 0.0 | 1.0 | 0.00 | 0.00 | 0.00 | 57 | 1012.3 |
| 20260509015222 | 60 | 295 | 0.0 | 1.0 | 0.00 | 0.00 | 0.00 | 57 | 1012.2 |
| 20260509014718 | 60 | 81 | 0.0 | 1.0 | 0.00 | 0.00 | 0.00 | 56 | 1012.2 |
| 20260509014210 | 60 | 91 | 0.0 | 0.0 | 0.00 | 0.00 | 0.00 | 55 | 1012.2 |
| 20260509013704 | 60 | 91 | 0.0 | 0.0 | 0.00 | 0.00 | 0.00 | 56 | 1012.2 |
| 20260509013159 | 61 | 91 | 0.0 | 0.0 | 0.00 | 0.00 | 0.00 | 56 | 1012.2 |
| 20260509012653 | 61 | 91 | 0.0 | 1.0 | 0.00 | 0.00 | 0.00 | 56 | 1012.2 |
| 20260509012147 | 61 | 91 | 0.0 | 2.0 | 0.00 | 0.00 | 0.00 | 56 | 1012.1 |
| 20260509011641 | 61 | 86 | 0.0 | 2.0 | 0.00 | 0.00 | 0.00 | 54 | 1012.1 |
| 20260509011401 | 61 | 183 | 0.0 | 1.0 | 0.00 | 0.00 | 0.00 | 56 | 1012.1 |
| 20260509010628 | 61 | 187 | 0.0 | 3.0 | 0.00 | 0.00 | 0.00 | 54 | 1012.0 |
| 20260509010122 | 62 | 188 | 0.0 | 3.0 | 0.00 | 0.00 | 0.00 | 53 | 1011.9 |
| 20260509005617 | 62 | 333 | 0.0 | 4.0 | 0.00 | 0.00 | 0.00 | 55 | 1011.9 |
| 20260509005332 | 62 | 231 | 0.0 | 4.0 | 0.00 | 0.00 | 0.00 | 53 | 1011.9 |
| 20260509004605 | 63 | 89 | 0.0 | 3.0 | 0.00 | 0.00 | 0.00 | 54 | 1011.8 |
| 20260509004058 | 63 | 177 | 0.0 | 1.0 | 0.00 | 0.00 | 0.00 | 55 | 1011.8 |
| 20260509003553 | 64 | 185 | 0.0 | 1.0 | 0.00 | 0.00 | 0.00 | 52 | 1011.7 |
| 20260509003046 | 64 | 217 | 0.0 | 1.0 | 0.00 | 0.00 | 0.00 | 53 | 1011.7 |
| 20260509002542 | 65 | 217 | 0.0 | 2.0 | 0.00 | 0.00 | 0.00 | 50 | 1011.7 |
| 20260509002035 | 65 | 225 | 0.0 | 2.0 | 0.00 | 0.00 | 0.00 | 51 | 1011.7 |
| 20260509001528 | 65 | 145 | 0.0 | 0.0 | 0.00 | 0.00 | 0.00 | 49 | 1011.6 |
| 20260509001023 | 66 | 145 | 0.0 | 0.0 | 0.00 | 0.00 | 0.00 | 48 | 1011.6 |
| 20260509000518 | 66 | 145 | 0.0 | 0.0 | 0.00 | 0.00 | 0.00 | 47 | 1011.6 |
| 20260509000234 | 67 | 145 | 0.0 | 0.0 | 0.00 | 0.00 | 0.00 | 47 | 1011.6 |
| 20260508235505 | 67 | 145 | 0.0 | 0.0 | 0.00 | 0.00 | 0.00 | 47 | 1011.6 |
| 20260508234958 | 67 | 145 | 0.0 | 1.0 | 0.00 | 0.00 | 0.00 | 45 | 1011.4 |
| 20260508234452 | 68 | 145 | 0.0 | 1.0 | 0.00 | 0.00 | 0.00 | 45 | 1011.4 |
| 20260508233947 | 68 | 130 | 0.0 | 0.0 | 0.00 | 0.00 | 0.00 | 45 | 1011.4 |
| 20260508233441 | 68 | 130 | 0.0 | 0.0 | 0.00 | 0.00 | 0.00 | 45 | 1011.4 |
| 20260508232935 | 68 | 130 | 0.0 | 0.0 | 0.00 | 0.00 | 0.00 | 46 | 1011.4 |
| 20260508232428 | 69 | 130 | 0.0 | 1.0 | 0.00 | 0.00 | 0.00 | 44 | 1011.4 |
| 20260508231922 | 69 | 130 | 0.0 | 1.0 | 0.00 | 0.00 | 0.00 | 43 | 1011.4 |
| 20260508231416 | 69 | 311 | 0.0 | 1.0 | 0.00 | 0.00 | 0.00 | 42 | 1011.3 |
| 20260508230912 | 69 | 253 | 0.0 | 3.0 | 0.00 | 0.00 | 0.00 | 43 | 1011.3 |
| 20260508230634 | 69 | 253 | 1.0 | 3.0 | 0.00 | 0.00 | 0.00 | 43 | 1011.1 |
| 20260508225859 | 69 | 126 | 1.0 | 4.0 | 0.00 | 0.00 | 0.00 | 42 | 1011.1 |
| 20260508225619 | 69 | 207 | 1.0 | 4.0 | 0.00 | 0.00 | 0.00 | 39 | 1011.1 |
| 20260508224846 | 69 | 98 | 1.0 | 4.0 | 0.00 | 0.00 | 0.00 | 39 | 1011.1 |
| 20260508224605 | 69 | 246 | 1.0 | 4.0 | 0.00 | 0.00 | 0.00 | 39 | 1011.0 |
| 20260508223836 | 69 | 245 | 1.0 | 3.0 | 0.00 | 0.00 | 0.00 | 37 | 1011.1 |